Regional Weather Roundup
Issued by NWS

Home | Current Version | Previous Version | Graphics & Text | Print | Product List | Glossary On
Versions: 1 2 3 4 5 6 7 8 9 10 11 12 13 14 15 16 17 18 19 20 21 22 23 24 25 26 27 28 29 30 31 32 33 34 35 36 37 38 39 40 41 42 43 44 45 46 47 48 49 50
000
ASUS43 KLOT 290400
RWRIL

ILLINOIS REGIONAL WEATHER ROUNDUP
NATIONAL WEATHER SERVICE CHICAGO/ROMEOVILLE IL
1000 PM CST WED JAN 28 2015

NOTE: "FAIR" INDICATES FEW OR NO CLOUDS BELOW 12,000 FEET WITH NO
SIGNIFICANT WEATHER AND/OR OBSTRUCTIONS TO VISIBILITY.

* THESE STATIONS ARE NOT UNDER NWS QUALITY CONTROL. THEY ALSO MAY NOT
  REPORT WEATHER SUCH AS PRECIPITATION OR FOG.

ILZ001-002-007-009-015-016-024-290500-
NORTHWEST ILLINOIS

CITY           SKY/WX    TMP DP  RH WIND       PRES   REMARKS
MOLINE         MOCLDY    37  30  75 SE9       29.73F WCI  30
STERLING*      CLOUDY    36  28  75 SE9       29.79F WCI  29
$$

ILZ003-004-008-010-011-017-018-290500-
NORTH CENTRAL ILLINOIS

CITY           SKY/WX    TMP DP  RH WIND       PRES   REMARKS
ROCKFORD       CLOUDY    33  25  72 S17G24    29.84F WCI  22
$$

ILZ005-006-012>014-019>023-290500-
NORTHEAST ILLINOIS

CITY           SKY/WX    TMP DP  RH WIND       PRES   REMARKS
CHICAGO-OHARE  CLOUDY    33  21  61 S14       29.88F WCI  23
CHICAGO-MIDWAY CLOUDY    35  21  56 S15G23    29.89F WCI  25
AURORA         CLOUDY    35  23  61 S20       29.86F WCI  24
WAUKEGAN       MOCLDY    32  20  61 SE13      29.88F WCI  22
DUPAGE AIRPORT CLOUDY    34  22  61 S18       29.86F WCI  23
WHEELING       CLOUDY    33  20  58 S14       29.90F WCI  23
NORTHERLY ISL    N/A     34  20  57 S15         N/A  WCI  24
$$

LMZ740>746-290500-
SOUTHERN LAKE MICHIGAN

STATION/POSITION SKY/WX   TEMP    WIND        PRES    VSBY  WAVE
                          AIR SEA DIR/SP/G                  HT/PER
                          (F)     (DEG/KT/KT) (MB)    (MI)  (FT/S)
WAUKEGAN HARBOR            33     170/ 15/ 19   N/A
HARRISON CRIB              34     170/ 26/ 29   N/A
BURNHAM HARBOR             34     180/ 11/ 18   N/A
CALUMET HARBOR             34     170/ 10/ 16   N/A
MICHIGAN CITY              32     130/ 17/ 23   N/A
$$

ILZ025>027-034>036-040-047-049-050-058-095>099-290500-
WEST-CENTRAL ILLINOIS

CITY           SKY/WX    TMP DP  RH WIND       PRES   REMARKS
QUINCY         CLEAR     46  33  60 S14       29.73F
$$

ILZ028>032-037-038-041>044-048-051>054-059>061-290500-
CENTRAL ILLINOIS

CITY           SKY/WX    TMP DP  RH WIND       PRES   REMARKS
DECATUR        CLOUDY    38  28  67 S16       29.91R WCI  29
PEORIA         CLOUDY    38  31  76 S17       29.82F WCI  28
SPRINGFIELD    LGT RAIN  41  33  73 S18G26    29.86F
TAYLORVILLE    NOT AVBL
$$

ILZ033-039-045-046-055>057-062-063-290500-
EAST-CENTRAL ILLINOIS

CITY           SKY/WX    TMP DP  RH WIND       PRES   REMARKS
CHAMPAIGN      CLOUDY    35  26  69 S16       29.94S WCI  25
MATTOON        CLOUDY    36  24  62 S18G25    29.91F WCI  26
$$

ILZ079-100>102-290500-
SOUTHWEST ILLINOIS

CITY           SKY/WX    TMP DP  RH WIND       PRES   REMARKS
ALTON          MOCLDY    43  32  65 S21       29.88F
BELLEVILLE     CLOUDY    44  33  64 S10G20    29.89F
CAHOKIA*       MOCLDY    44  34  67 SE9       29.87F
$$

ILZ064>066-069>071-074>076-080>082-084>086-088>090-092>094-290500-
SOUTH-CENTRAL ILLINOIS

CITY           SKY/WX    TMP DP  RH WIND       PRES   REMARKS
CARBONDALE     CLOUDY    45  29  53 S15G23    29.97F
MT. VERNON     CLOUDY    39  28  65 S8        29.97F WCI  34
$$

ILZ067-068-072-073-078-083-087-091-290500-
SOUTHEAST ILLINOIS

CITY           SKY/WX    TMP DP  RH WIND       PRES   REMARKS
LAWRENCEVILLE  CLOUDY    38  25  59 S15       30.01F WCI  29
$$

ABBREVIATIONS USED IN REMARKS
   TC - TEMPERATURE IN CELSIUS
  WCI - WIND CHILL INDEX
   HX - HEAT INDEX
  VSB - VISIBILITY
$$



USA.gov is the U.S. government's official web portal to all federal, state and local government web resources and services.